Find Starlink 11280

NORAD ID: 61245 Int'l Des: 2024-175 Owner: SPXS Country: US Constellation: starlink operational
LEOCIRCULAR

現在のビュー

3D地球を読み込み中...

About Starlink 11280

Starlink 11280 (NORAD 61245) is a starlink constellation satellite (v2 mini d2c) launched Sep 25, 2024 by SPXS of US. It operates in LEO, CIRCULAR orbit with a mass of 960.00 kg.

Starlink 11280について

説明を読み込み中...

次回通過

Passes for default location (London). Set your location on the main map for personalized predictions.

高度履歴

Loading altitude history...

軌道要素

1 61245U 24175C 26191.25002315 -.00224047 00000-0 -18867-2 0 9997
2 61245 53.1564 171.9513 0001382 75.8613 80.0292 15.69810973 5987
Epoch: Jul 10, 2026 • Age: 11 hours

現在のステータス

高度 378.4 km
遠地点 / 近地点 N/A
速度 7.68 km/s
衛星直下点 -50.62°S, 130.52°W
打ち上げ日 Sep 25, 2024
運用期間 1.7 years
タイプ internet

技術仕様

分類 Payload
質量 960.00 kg
乾燥質量 910.00 kg
総質量 960.00 kg
長さ 0.30 m
直径 4.10 m
スパン 29.00 m
形状 Box + pan
製造者 SPXS
バスタイプ Starlink V2MD
フェーズステータス In Orbit
所有者/国 SPXS/US

Most Searched